Overview Statistics Trail Chart Weather Telemetry Raw packets
 

This is the latest recevied weather packets stored in our database for station/object SA7AHC. If no packets are shown the sender has not sent any weather packets the latest 10 day(s).

<< 22 23 24 25 26 27 28 >>
Time Temp. Humidity Pressure Rain* Wind** Luminosity Snow
1788290366 13.33° C 90% 1013.2 hPa 0 mm - 0 W/m² -
1788289753 13.33° C 90% 1013.1 hPa 0 mm - 0 W/m² -
1788289143 13.89° C 89% 1013.1 hPa 0 mm - 0 W/m² -
1788288545 13.89° C 89% 1013.1 hPa 0 mm - 0 W/m² -
1788287941 14.44° C 88% 1013 hPa 0 mm - 0 W/m² -
1788287344 14.44° C 87% 1013.1 hPa 0 mm - 0 W/m² -
1788286741 15° C 86% 1012.9 hPa 0 mm - 0 W/m² -
1788286142 15° C 87% 1012.7 hPa 0 mm - 0 W/m² -
1788285541 15° C 86% 1012.7 hPa 0 mm - 0 W/m² -
1788284942 15° C 86% 1012.6 hPa 0 mm - 5 W/m² -
1788284341 15.56° C 86% 1012.6 hPa 0 mm - 9 W/m² -
1788283741 15.56° C 86% 1012.6 hPa 0 mm - 14 W/m² -
1788283141 15.56° C 86% 1012.6 hPa 0 mm - 25 W/m² -
1788282541 15.56° C 86% 1012.5 hPa 0 mm - 25 W/m² -
1788281930 15.56° C 84% 1012.5 hPa 0 mm - 18 W/m² -
1788281330 16.11° C 83% 1012.4 hPa 0 mm - 16 W/m² -
1788280733 16.67° C 81% 1012.2 hPa 0 mm - 25 W/m² -
1788280130 17.22° C 79% 1012.2 hPa 0 mm - 26 W/m² -
1788279529 17.22° C 80% 1012.3 hPa 0 mm - 39 W/m² -
1788278929 17.22° C 81% 1012.2 hPa 0 mm - 51 W/m² -
1788278327 16.67° C 81% 1012.2 hPa 0 mm - 79 W/m² -
1788277727 17.22° C 81% 1012 hPa 0 mm - 90 W/m² -
1788277125 17.22° C 79% 1011.8 hPa 0 mm - 63 W/m² -
1788276523 17.78° C 77% 1011.8 hPa 0 mm - 53 W/m² -
1788275921 17.78° C 75% 1011.7 hPa 0 mm - 56 W/m² -

* Rain latest hour (hover to see other rain measurements)
** Current wind speed in m/s (hover to see current wind gust speed)